Powrót do katalogu

STARLINK-30885

AktywnyŁącznośćVLEO
NORAD 58361·PAYLOAD·🇺🇸 United States

Wystrzelony Nov 18, 2023 z Cape Canaveral Space Force Station

Loading…

Następne Przeloty (najbliższe 24 godziny)

TLE

ŚwieżeSource: CelesTrak SupGP

Epoka: Sep 14, 2026, 22:12 UTC

1 58361C 23177L   26257.92548611 -.00070064  00000+0 -25372-2 0  2577
2 58361  43.0043   1.8013 0001694 265.2480 316.4444 15.27619913    10

Śledź STARLINK-30885 w czasie rzeczywistym z AllMySat

Download on the App Store